Location: Peterborough
(44.3091°N, 78.3197°W)
Time: 07:12:39
(UTC-04:00)

A-11 Canister half - Pass Details

Date: 29 March 2023
Orbit: 1513 x 1686 km, 47.2° (Epoch: 04 June)

Event Time Altitude Azimuth Distance (km) Brightness Sun altitude
Rises 02:00:01 0° 286° (WNW) 4,885 11.7 -41.5°
Reaches altitude 10° 02:03:09 10° 287° (WNW) 3,914 11.1 -41.3°
Enters shadow 02:06:02 23° 288° (WNW) 3,046 10.5 -41.2°
Exits shadow 02:19:21 30° 107° (ESE) 2,712 10.2 -40.5°
Drops below altitude 10° 02:23:32 10° 109° (ESE) 3,943 11.1 -40.2°
Sets 02:26:41 0° 110° (ESE) 4,922 11.7 -40.0°
